Galena, AK

6:38 AM AKDT on April 23, 2017 (GMT -0800)
Pitka

Weather History for PAGA - November, 2012

Change the Weather History Date:

Saturday, November 17, 2012

  Actual Average Record
Temperature  
Mean Temperature -16 °F -  
Max Temperature 1 °F 8 °F 32 °F (1964)
Min Temperature -32 °F -4 °F -41 °F (1956)
Degree Days  
Heating Degree Days 80    
Moisture  
Dew Point -11 °F    
Average Humidity 71    
Maximum Humidity 83    
Minimum Humidity 63    
Precipitation  
Precipitation 0.00 in - - ()
Sea Level Pressure  
Sea Level Pressure 29.94 in    
Wind  
Wind Speed 5 mph (NNE)    
Max Wind Speed 16 mph    
Max Gust Speed 28 mph    
Visibility 10 miles    
Events Snow    
Averages and records for this station are not official NWS values.
T = Trace of Precipitation, MM = Missing Value Source: NWS Daily Summary

Daily Weather History Graph

Daily Weather History Graph

Search for Another Location

Airport or City:

Trip Planner

Search our weather history database for the weather conditions in past years. The results will help you decide how hot, cold, wet, or windy it might be!

Date:

Astronomy

Nov. 17, 2012 Rise Set
Actual Time 10:11 AM AKST 4:13 PM AKST
Civil Twilight 9:07 AM AKST 5:17 PM AKST
Nautical Twilight 8:04 AM AKST 6:20 PM AKST
Astronomical Twilight 7:06 AM AKST 7:18 PM AKST
Moon 1:59 PM AKST (11/17) 8:48 PM AKST (11/17)
Length of Visible Light 8h 10m
Length of Day
6h 02m
Waxing Crescent, 21% of the Moon is Illuminated
Nov 17
Waxing Crescent
Nov 20
First Quarter
Nov 28
Full
Dec 6
Last Quarter
Dec 12
New

Hourly Weather History & Observations

Time (AKST) Temp. Windchill Dew Point Humidity Pressure Visibility Wind Dir Wind Speed Gust Speed Precip Events Conditions
12:58 AM -29.9 °F - - N/A% 30.15 in 10.0 mi Calm Calm - N/A   Clear
1:58 AM -29.9 °F -42.0 °F - N/A% 30.13 in 10.0 mi East 3.5 mph - N/A   Clear
2:58 AM -31.0 °F - - N/A% 30.11 in 10.0 mi Calm Calm - N/A   Clear
3:58 AM -32.1 °F - - N/A% 30.09 in 10.0 mi Calm Calm - N/A   Clear
4:58 AM -31.0 °F - - N/A% 30.07 in 10.0 mi Calm Calm - N/A   Clear
5:58 AM -25.1 °F -36.5 °F -29.9 °F 78% 30.04 in 10.0 mi NNW 3.5 mph - N/A   Clear
6:58 AM -22.0 °F - -26.0 °F 82% 30.03 in 10.0 mi Calm Calm - N/A   Clear
8:58 AM -6.0 °F -20.1 °F -9.9 °F 83% 30.00 in 10.0 mi North 6.9 mph - N/A   Clear
9:58 AM -6.0 °F -14.7 °F -9.9 °F 83% 29.99 in 10.0 mi Variable 3.5 mph - N/A   Clear
10:58 AM -4.0 °F -19.0 °F -8.0 °F 83% 29.95 in 10.0 mi NNE 8.1 mph - N/A   Clear
11:58 AM -0.9 °F -18.3 °F -7.1 °F 75% 29.94 in 10.0 mi North 11.5 mph 17.3 mph N/A   Clear
12:58 PM -0.0 °F -16.3 °F -8.0 °F 69% 29.92 in 10.0 mi NNE 10.4 mph 16.1 mph N/A   Clear
1:58 PM -0.0 °F -18.0 °F -8.0 °F 69% 29.90 in 10.0 mi NNE 12.7 mph 23.0 mph N/A   Clear
2:58 PM 1.0 °F -18.7 °F -9.0 °F 63% 29.87 in 10.0 mi NNE 16.1 mph 27.6 mph N/A   Clear
3:58 PM -0.0 °F -19.4 °F -9.0 °F 66% 29.85 in 10.0 mi North 15.0 mph 25.3 mph 0.00 in Snow Light Snow
4:58 PM -0.0 °F -18.0 °F -9.0 °F 66% 29.83 in 10.0 mi North 12.7 mph 21.9 mph 0.00 in   Clear
5:58 PM -0.0 °F -18.7 °F -9.0 °F 66% 29.83 in 10.0 mi North 13.8 mph 25.3 mph 0.00 in   Clear
6:58 PM -0.0 °F -17.1 °F -9.0 °F 66% 29.82 in 9.0 mi North 11.5 mph 23.0 mph 0.00 in Snow Light Snow
7:58 PM -0.9 °F -20.6 °F -9.9 °F 66% 29.81 in 10.0 mi North 15.0 mph 24.2 mph 0.00 in   Clear
8:58 PM -0.0 °F -18.0 °F -9.9 °F 63% 29.81 in 10.0 mi North 12.7 mph 20.7 mph N/A   Clear
9:58 PM -0.9 °F -17.4 °F -9.9 °F 66% 29.80 in 10.0 mi NNE 10.4 mph 20.7 mph N/A   Clear
10:58 PM -0.9 °F -16.4 °F -9.9 °F 66% 29.81 in 10.0 mi North 9.2 mph 17.3 mph N/A   Clear
11:58 PM -0.9 °F -16.4 °F -9.9 °F 66% 29.80 in 10.0 mi North 9.2 mph - N/A   Clear